| time (UTC) | temp F | wind direction | speed knots | gust knots | rain 1hr in | rain 24hr in | rain mn in | humidity % | barometer mb |
| 20260505184538 | 85 | 105 | 0.9 | 5.2 | 0.00 | 0.00 | 0.00 | 48 | 1004.3 |
| 20260505183038 | 84 | 110 | 0.9 | 3.5 | 0.00 | 0.00 | 0.00 | 49 | 1004.4 |
| 20260505181537 | 83 | 8 | 1.7 | 9.6 | 0.00 | 0.00 | 0.00 | 49 | 1004.3 |
| 20260505180057 | 84 | 114 | 0.9 | 4.3 | 0.00 | 0.00 | 0.00 | 49 | 1004.5 |
| 20260505174556 | 83 | 19 | 1.7 | 5.2 | 0.00 | 0.00 | 0.00 | 50 | 1004.5 |
| 20260505173037 | 82 | 76 | 0.9 | 6.1 | 0.00 | 0.00 | 0.00 | 51 | 1004.3 |
| 20260505171537 | 82 | 72 | 2.6 | 9.6 | 0.00 | 0.00 | 0.00 | 50 | 1004.4 |
| 20260505170037 | 82 | 49 | 1.7 | 4.3 | 0.00 | 0.00 | 0.00 | 52 | 1004.5 |
| 20260505164535 | 80 | 31 | 0.9 | 7.0 | 0.00 | 0.00 | 0.00 | 54 | 1004.5 |
| 20260505163035 | 80 | 354 | 2.6 | 9.6 | 0.00 | 0.00 | 0.00 | 54 | 1004.4 |
| 20260505161537 | 79 | 120 | 2.6 | 7.8 | 0.00 | 0.00 | 0.00 | 54 | 1004.3 |
| 20260505153036 | 77 | 121 | 1.7 | 10.4 | 0.00 | 0.00 | 0.00 | 58 | 1004.2 |
| 20260505151535 | 77 | 21 | 1.7 | 6.1 | 0.00 | 0.00 | 0.00 | 58 | 1004.0 |
| 20260505124538 | 70 | 48 | 0.0 | 3.5 | 0.00 | 0.00 | 0.00 | 67 | 1003.7 |
| 20260505123037 | 70 | 115 | 0.0 | 3.5 | 0.00 | 0.00 | 0.00 | 68 | 1003.5 |
| 20260505121535 | 70 | 107 | 0.0 | 9.6 | 0.00 | 0.00 | 0.00 | 68 | 1003.4 |
| 20260505120036 | 70 | 0 | 0.0 | 5.2 | 0.00 | 0.00 | 0.00 | 68 | 1003.4 |
| 20260505114537 | 70 | 139 | 0.0 | 4.3 | 0.00 | 0.00 | 0.00 | 67 | 1003.2 |
| 20260505113036 | 70 | 0 | 0.9 | 4.3 | 0.00 | 0.00 | 0.00 | 67 | 1003.0 |
| 20260505111537 | 70 | 113 | 0.0 | 4.3 | 0.00 | 0.00 | 0.00 | 67 | 1003.0 |
| 20260505101535 | 70 | 24 | 0.9 | 9.6 | 0.00 | 0.00 | 0.00 | 66 | 1002.9 |
| 20260505100035 | 71 | 89 | 0.0 | 8.7 | 0.00 | 0.00 | 0.00 | 65 | 1003.1 |
| 20260505094534 | 71 | 155 | 0.9 | 7.0 | 0.00 | 0.00 | 0.00 | 65 | 1002.9 |
| 20260505093040 | 71 | 93 | 0.9 | 8.7 | 0.00 | 0.00 | 0.00 | 64 | 1003.2 |
| 20260505091543 | 72 | 32 | 0.9 | 13.0 | 0.00 | 0.00 | 0.00 | 63 | 1003.3 |
| 20260505090034 | 72 | 266 | 2.6 | 8.7 | 0.00 | 0.00 | 0.00 | 63 | 1003.5 |
| 20260505084535 | 72 | 68 | 2.6 | 11.3 | 0.00 | 0.00 | 0.00 | 62 | 1003.4 |
| 20260505083035 | 72 | 108 | 2.6 | 11.3 | 0.00 | 0.00 | 0.00 | 62 | 1003.6 |
| 20260505081539 | 73 | 18 | 3.5 | 9.6 | 0.00 | 0.00 | 0.00 | 61 | 1003.4 |
| 20260505080037 | 73 | 0 | 3.5 | 7.8 | 0.00 | 0.00 | 0.00 | 60 | 1003.6 |
| 20260505074537 | 73 | 82 | 1.7 | 7.8 | 0.00 | 0.00 | 0.00 | 59 | 1003.6 |
| 20260505073034 | 73 | 140 | 2.6 | 11.3 | 0.00 | 0.00 | 0.00 | 58 | 1004.0 |
| 20260505071551 | 74 | 82 | 2.6 | 8.7 | 0.00 | 0.00 | 0.00 | 57 | 1004.2 |
| 20260505070038 | 74 | 27 | 2.6 | 11.3 | 0.00 | 0.00 | 0.00 | 57 | 1004.4 |
| 20260505064536 | 74 | 86 | 1.7 | 7.8 | 0.00 | 0.00 | 0.00 | 56 | 1004.7 |
| 20260505063032 | 74 | 25 | 2.6 | 11.3 | 0.00 | 0.00 | 0.00 | 55 | 1004.7 |
| 20260505061556 | 74 | 63 | 3.5 | 8.7 | 0.00 | 0.00 | 0.00 | 54 | 1004.8 |
| 20260505060035 | 74 | 27 | 1.7 | 7.0 | 0.00 | 0.00 | 0.00 | 54 | 1004.8 |
| 20260505054535 | 75 | 108 | 1.7 | 7.0 | 0.00 | 0.00 | 0.00 | 54 | 1004.7 |
| 20260505053041 | 74 | 94 | 2.6 | 7.8 | 0.00 | 0.00 | 0.00 | 54 | 1004.7 |
| 20260505051555 | 74 | 25 | 1.7 | 10.4 | 0.00 | 0.00 | 0.00 | 54 | 1004.8 |
| 20260505041540 | 75 | 1 | 2.6 | 10.4 | 0.00 | 0.00 | 0.00 | 54 | 1005.0 |
| 20260505040036 | 75 | 20 | 2.6 | 14.8 | 0.00 | 0.00 | 0.00 | 53 | 1005.2 |
| 20260505034534 | 75 | 4 | 2.6 | 10.4 | 0.00 | 0.00 | 0.00 | 53 | 1005.3 |
| 20260505033034 | 75 | 8 | 3.5 | 9.6 | 0.00 | 0.00 | 0.00 | 53 | 1005.2 |
| 20260505031540 | 75 | 283 | 1.7 | 9.6 | 0.00 | 0.00 | 0.00 | 53 | 1005.1 |
| 20260505030038 | 75 | 20 | 0.9 | 15.6 | 0.00 | 0.00 | 0.00 | 52 | 1005.3 |
| 20260505024539 | 75 | 19 | 1.7 | 7.8 | 0.00 | 0.00 | 0.00 | 52 | 1005.3 |
| 20260505023036 | 76 | 166 | 1.7 | 8.7 | 0.00 | 0.00 | 0.00 | 51 | 1005.3 |
| 20260505021534 | 76 | 96 | 2.6 | 8.7 | 0.00 | 0.00 | 0.00 | 51 | 1005.1 |
| 20260505020032 | 76 | 12 | 0.9 | 13.0 | 0.00 | 0.00 | 0.00 | 51 | 1005.1 |
| 20260505014532 | 76 | 292 | 2.6 | 8.7 | 0.00 | 0.00 | 0.00 | 51 | 1005.2 |
| 20260505013032 | 76 | 90 | 1.7 | 8.7 | 0.00 | 0.00 | 0.00 | 50 | 1005.2 |
| 20260505011537 | 76 | 100 | 0.9 | 10.4 | 0.00 | 0.00 | 0.00 | 50 | 1005.2 |
| 20260505010037 | 77 | 89 | 2.6 | 10.4 | 0.00 | 0.00 | 0.00 | 49 | 1005.3 |
| 20260505004535 | 77 | 42 | 3.5 | 12.2 | 0.00 | 0.00 | 0.00 | 49 | 1005.2 |
| 20260505003038 | 77 | 52 | 3.5 | 13.9 | 0.00 | 0.00 | 0.00 | 48 | 1005.2 |
| 20260505001532 | 78 | 39 | 2.6 | 10.4 | 0.00 | 0.00 | 0.00 | 48 | 1005.3 |
| 20260505000038 | 78 | 354 | 4.3 | 14.8 | 0.00 | 0.00 | 0.00 | 47 | 1005.6 |
| 20260504234536 | 79 | 281 | 2.6 | 11.3 | 0.00 | 0.00 | 0.00 | 46 | 1005.5 |
| 20260504233033 | 79 | 129 | 1.7 | 12.2 | 0.00 | 0.00 | 0.00 | 46 | 1005.7 |
| 20260504231541 | 79 | 29 | 4.3 | 11.3 | 0.00 | 0.00 | 0.00 | 45 | 1005.6 |
| 20260504230034 | 80 | 30 | 2.6 | 10.4 | 0.00 | 0.00 | 0.00 | 44 | 1005.6 |
| 20260504224533 | 81 | 302 | 5.2 | 15.6 | 0.00 | 0.00 | 0.00 | 42 | 1006.0 |
| 20260504223034 | 81 | 39 | 4.3 | 16.5 | 0.00 | 0.00 | 0.00 | 42 | 1005.9 |
| 20260504221535 | 81 | 13 | 3.5 | 13.9 | 0.00 | 0.00 | 0.00 | 42 | 1005.9 |
| 20260504220035 | 82 | 46 | 3.5 | 13.0 | 0.00 | 0.00 | 0.00 | 42 | 1006.0 |
| 20260504214534 | 82 | 6 | 1.7 | 11.3 | 0.00 | 0.00 | 0.00 | 42 | 1006.2 |
| 20260504213038 | 82 | 8 | 4.3 | 10.4 | 0.00 | 0.00 | 0.00 | 41 | 1006.5 |
| 20260504211533 | 83 | 106 | 3.5 | 10.4 | 0.00 | 0.00 | 0.00 | 40 | 1006.7 |
| 20260504210035 | 82 | 6 | 4.3 | 13.0 | 0.00 | 0.00 | 0.00 | 40 | 1007.1 |
| 20260504204533 | 81 | 319 | 3.5 | 13.0 | 0.00 | 0.00 | 0.00 | 41 | 1007.4 |
| 20260504203050 | 81 | 11 | 3.5 | 11.3 | 0.00 | 0.00 | 0.00 | 42 | 1007.5 |
| 20260504201535 | 81 | 13 | 4.3 | 12.2 | 0.00 | 0.00 | 0.00 | 41 | 1008.0 |
| 20260504200032 | 80 | 110 | 3.5 | 12.2 | 0.00 | 0.00 | 0.00 | 41 | 1008.3 |
| 20260504194535 | 81 | 32 | 3.5 | 12.2 | 0.00 | 0.00 | 0.00 | 41 | 1008.9 |
| 20260504193034 | 80 | 357 | 4.3 | 11.3 | 0.00 | 0.00 | 0.00 | 41 | 1009.0 |
| 20260504191535 | 80 | 352 | 2.6 | 10.4 | 0.00 | 0.00 | 0.00 | 41 | 1009.1 |
| 20260504190050 | 80 | 274 | 3.5 | 11.3 | 0.00 | 0.00 | 0.00 | 41 | 1009.4 |